Weather History for PABL - October, 2012

Change the Weather History Date:

Thursday, October 18, 2012

  Actual Average (PASK) Record (PASK)
Temperature  
Mean Temperature 24 °F -  
Max Temperature 32 °F 21 °F 42 °F (2013)
Min Temperature 17 °F 13 °F 0 °F (1996)
Degree Days  
Heating Degree Days 40    
Moisture  
Dew Point 18 °F    
Average Humidity 77    
Maximum Humidity 93    
Minimum Humidity 55    
Precipitation  
Precipitation 0.00 in - - ()
Sea Level Pressure  
Sea Level Pressure 30.21 in    
Wind  
Wind Speed 8 mph (NW)    
Max Wind Speed 16 mph    
Max Gust Speed -    
Visibility 10 miles    
Events      
Averages and records for this station are not official NWS values.
T = Trace of Precipitation, MM = Missing Value Source: NWS Daily Summary

Daily Weather History Graph

Daily Weather History Graph

Search for Another Location

Airport or City:

Trip Planner

Search our weather history database for the weather conditions in past years. The results will help you decide how hot, cold, wet, or windy it might be!

Date:

Astronomy

Oct. 18, 2012 Rise Set
Actual Time 9:53 AM AKDT 7:04 PM AKDT
Civil Twilight 9:00 AM AKDT 7:57 PM AKDT
Nautical Twilight 8:00 AM AKDT 8:56 PM AKDT
Astronomical Twilight 7:00 AM AKDT 9:56 PM AKDT
Moon 3:44 PM AKDT (10/18) 7:54 PM AKDT (10/18)
Length of Visible Light 10h 57m
Length of Day
9h 10m
Waxing Crescent, 15% of the Moon is Illuminated
Oct 18
Waxing Crescent
Oct 21
First Quarter
Oct 29
Full
Nov 6
Last Quarter
Nov 13
New

Hourly Weather History & Observations

Time (AKDT) Temp. Windchill Dew Point Humidity Pressure Visibility Wind Dir Wind Speed Gust Speed Precip Events Conditions
12:16 AM 19.4 °F 12.8 °F 12.2 °F 74% 30.15 in 10.0 mi NNW 4.6 mph - N/A   Clear
12:36 AM 17.6 °F 7.3 °F 15.8 °F 93% 30.15 in 10.0 mi NW 8.1 mph - N/A   Clear
12:56 AM 17.6 °F 8.2 °F 15.8 °F 93% 30.15 in 10.0 mi NW 6.9 mph - N/A   Clear
1:16 AM 17.6 °F 8.2 °F 15.8 °F 93% 30.15 in 10.0 mi NW 6.9 mph - N/A   Clear
1:36 AM 17.6 °F 10.7 °F 12.2 °F 79% 30.16 in 10.0 mi West 4.6 mph - N/A   Clear
1:56 AM 17.6 °F 8.2 °F 15.8 °F 93% 30.16 in 10.0 mi WNW 6.9 mph - N/A   Clear
2:16 AM 17.6 °F 6.4 °F 14.0 °F 86% 30.16 in 10.0 mi WNW 9.2 mph - N/A   Clear
2:36 AM 17.6 °F 7.3 °F 14.0 °F 86% 30.16 in 10.0 mi WNW 8.1 mph - N/A   Mostly Cloudy
2:56 AM 17.6 °F 8.2 °F 15.8 °F 93% 30.16 in 10.0 mi NW 6.9 mph - N/A   Overcast
3:16 AM 19.4 °F 8.6 °F 17.6 °F 93% 30.16 in 10.0 mi NW 9.2 mph - N/A   Mostly Cloudy
3:36 AM 19.4 °F - 12.2 °F 74% 30.16 in 10.0 mi Calm Calm - N/A   Mostly Cloudy
3:56 AM 19.4 °F 14.3 °F 14.0 °F 80% 30.17 in 10.0 mi SE 3.5 mph - N/A   Partly Cloudy
4:16 AM 19.4 °F - 15.8 °F 86% 30.16 in 10.0 mi Calm Calm - N/A   Clear
4:36 AM 17.6 °F 6.4 °F 14.0 °F 86% 30.16 in 10.0 mi NW 9.2 mph - N/A   Clear
4:56 AM 19.4 °F 9.5 °F 14.0 °F 80% 30.16 in 10.0 mi NNW 8.1 mph - N/A   Clear
5:16 AM 19.4 °F 7.2 °F 15.8 °F 86% 30.16 in 10.0 mi NW 11.5 mph - N/A   Clear
5:36 AM 19.4 °F 7.9 °F 15.8 °F 86% 30.17 in 10.0 mi NW 10.4 mph - N/A   Clear
5:56 AM 19.4 °F 8.6 °F 15.8 °F 86% 30.17 in 10.0 mi NW 9.2 mph - N/A   Clear
6:16 AM 21.2 °F 11.7 °F 15.8 °F 80% 30.17 in 10.0 mi NW 8.1 mph - N/A   Mostly Cloudy
6:36 AM 23.0 °F 13.9 °F 17.6 °F 80% 30.17 in 10.0 mi NW 8.1 mph - N/A   Overcast
6:56 AM 23.0 °F 13.1 °F 19.4 °F 86% 30.17 in 10.0 mi WNW 9.2 mph - N/A   Overcast
7:16 AM 23.0 °F 13.1 °F 19.4 °F 86% 30.18 in 10.0 mi WNW 9.2 mph - N/A   Overcast
7:36 AM 24.8 °F 17.9 °F 17.6 °F 74% 30.18 in 10.0 mi WNW 5.8 mph - N/A   Overcast
7:56 AM 26.6 °F 18.2 °F 19.4 °F 74% 30.18 in 10.0 mi NNW 8.1 mph - N/A   Overcast
8:16 AM 26.6 °F 17.5 °F 19.4 °F 74% 30.19 in 10.0 mi NNW 9.2 mph - N/A   Overcast
8:36 AM 26.6 °F 17.5 °F 19.4 °F 74% 30.19 in 10.0 mi NW 9.2 mph - N/A   Overcast
8:56 AM 26.6 °F 20.0 °F 17.6 °F 69% 30.19 in 10.0 mi NW 5.8 mph - N/A   Overcast
9:16 AM 26.6 °F 18.2 °F 17.6 °F 69% 30.19 in 10.0 mi North 8.1 mph - N/A   Overcast
9:36 AM 26.6 °F 20.0 °F 17.6 °F 69% 30.20 in 10.0 mi NW 5.8 mph - N/A   Mostly Cloudy
9:56 AM 24.8 °F 17.9 °F 17.6 °F 74% 30.20 in 10.0 mi West 5.8 mph - N/A   Partly Cloudy
10:16 AM 21.2 °F 11.7 °F 17.6 °F 86% 30.21 in 10.0 mi WNW 8.1 mph - N/A   Clear
10:36 AM 23.0 °F 13.1 °F 17.6 °F 80% 30.21 in 10.0 mi NW 9.2 mph - N/A   Clear
10:56 AM 23.0 °F 12.4 °F 17.6 °F 80% 30.21 in 10.0 mi NW 10.4 mph - N/A   Clear
11:16 AM 24.8 °F 16.9 °F 17.6 °F 74% 30.21 in 10.0 mi NW 6.9 mph - N/A   Clear
11:36 AM 24.8 °F 14.0 °F 17.6 °F 74% 30.21 in 10.0 mi NW 11.5 mph - N/A   Clear
11:56 AM 24.8 °F 14.6 °F 19.4 °F 80% 30.22 in 10.0 mi NW 10.4 mph - N/A   Clear
12:16 PM 26.6 °F 17.5 °F 19.4 °F 74% 30.23 in 10.0 mi NW 9.2 mph - N/A   Clear
12:36 PM 28.4 °F 18.5 °F 19.4 °F 69% 30.22 in 10.0 mi NW 11.5 mph - N/A   Clear
12:56 PM 28.4 °F 19.1 °F 19.4 °F 69% 30.22 in 10.0 mi NNW 10.4 mph - N/A   Clear
1:16 PM 28.4 °F 19.7 °F 19.4 °F 69% 30.23 in 10.0 mi NW 9.2 mph - N/A   Clear
1:36 PM 30.2 °F 24.3 °F 17.6 °F 60% 30.23 in 10.0 mi NNW 5.8 mph - N/A   Clear
1:56 PM 30.2 °F 22.6 °F 17.6 °F 60% 30.23 in 10.0 mi NNW 8.1 mph - N/A   Clear
2:16 PM 30.2 °F 23.4 °F 17.6 °F 60% 30.23 in 10.0 mi NNW 6.9 mph - N/A   Clear
2:36 PM 30.2 °F 21.3 °F 17.6 °F 60% 30.23 in 10.0 mi NNW 10.4 mph - N/A   Clear
2:56 PM 32.0 °F 23.6 °F 17.6 °F 55% 30.23 in 10.0 mi NNW 10.4 mph - N/A   Clear
3:16 PM 32.0 °F 24.8 °F 17.6 °F 55% 30.24 in 10.0 mi NNW 8.1 mph - N/A   Clear
3:36 PM 32.0 °F 24.8 °F 19.4 °F 60% 30.24 in 10.0 mi NNW 8.1 mph - N/A   Clear
3:56 PM 32.0 °F 23.0 °F 19.4 °F 60% 30.24 in 10.0 mi WNW 11.5 mph - N/A   Clear
4:16 PM 32.0 °F 23.6 °F 17.6 °F 55% 30.24 in 10.0 mi NW 10.4 mph - N/A   Clear
4:36 PM 32.0 °F 23.0 °F 17.6 °F 55% 30.24 in 10.0 mi NNW 11.5 mph - N/A   Clear
4:56 PM 32.0 °F 24.2 °F 17.6 °F 55% 30.24 in 10.0 mi NW 9.2 mph - N/A   Clear
5:36 PM 30.2 °F 18.9 °F 19.4 °F 64% 30.24 in 10.0 mi WNW 16.1 mph - N/A   Clear
5:56 PM 30.2 °F 20.8 °F 21.2 °F 69% 30.24 in 10.0 mi WNW 11.5 mph - N/A   Clear
6:16 PM 28.4 °F 17.0 °F 21.2 °F 74% 30.24 in 10.0 mi WNW 15.0 mph - N/A   Clear
6:36 PM 28.4 °F 19.1 °F 21.2 °F 74% 30.24 in 10.0 mi WNW 10.4 mph - N/A   Clear
6:56 PM 26.6 °F 16.2 °F 21.2 °F 80% 30.24 in 10.0 mi WNW 11.5 mph - N/A   Clear
7:16 PM 26.6 °F 16.8 °F 21.2 °F 80% 30.24 in 10.0 mi WNW 10.4 mph - N/A   Clear
7:36 PM 24.8 °F 15.3 °F 19.4 °F 80% 30.24 in 10.0 mi WNW 9.2 mph - N/A   Clear
7:56 PM 24.8 °F 14.0 °F 21.2 °F 86% 30.24 in 10.0 mi West 11.5 mph - N/A   Clear
8:16 PM 24.8 °F 13.4 °F 21.2 °F 86% 30.24 in 10.0 mi WNW 12.7 mph - N/A   Clear
8:36 PM 24.8 °F 14.0 °F 21.2 °F 86% 30.24 in 10.0 mi WNW 11.5 mph - N/A   Clear
8:56 PM 24.8 °F 14.6 °F 19.4 °F 80% 30.25 in 10.0 mi West 10.4 mph - N/A   Clear
9:16 PM 24.8 °F 15.3 °F 19.4 °F 80% 30.25 in 10.0 mi West 9.2 mph - N/A   Clear
9:36 PM 24.8 °F 15.3 °F 21.2 °F 86% 30.25 in 10.0 mi West 9.2 mph - N/A   Clear
9:56 PM 24.8 °F 16.1 °F 19.4 °F 80% 30.25 in 10.0 mi West 8.1 mph - N/A   Clear
10:16 PM 24.8 °F 16.1 °F 19.4 °F 80% 30.26 in 10.0 mi West 8.1 mph - N/A   Clear
10:36 PM 24.8 °F 16.1 °F 21.2 °F 86% 30.26 in 10.0 mi West 8.1 mph - N/A   Partly Cloudy
10:56 PM 26.6 °F 16.2 °F 21.2 °F 80% 30.26 in 10.0 mi West 11.5 mph - N/A   Mostly Cloudy
11:16 PM 26.6 °F 16.8 °F 23.0 °F 86% 30.26 in 10.0 mi West 10.4 mph - N/A   Overcast
11:36 PM 26.6 °F 16.8 °F 21.2 °F 80% 30.27 in 10.0 mi West 10.4 mph - N/A   Overcast
11:56 PM 28.4 °F 19.7 °F 21.2 °F 74% 30.27 in 10.0 mi West 9.2 mph - N/A   Overcast